小惑星ドン・キホーテ

(3552) Don Quixote (2009)

English version
Home page
Total 6,336 html files since Dec. 4, 1995
Updated on April 26, 2008

---------------------------------------------------------------------

・ プロフィール

・ 軌道要素

The following orbital elements are taken from MPO128610

Epoch 2007 Oct. 27.0 TT = JDT 2454400.5                 MPC
M 282.60584              (2000.0)            P               Q
n   0.11337481     Peri.  317.05715     +0.62274079     +0.77758418
a   4.2279029      Node   350.26854     -0.50250192     +0.31230825
e   0.7137110      Incl.   30.94957     -0.59973805     +0.54573473
P   8.69           H   13.0           G   0.15           U   1
From 166 observations at 11 oppositions, 1983-2007, mean residual 0".74.

・ 星図

・ 光度変化

        H = 13.0  G = 0.15

---------------------------------------------------------------------

軌道要素はMPCのEphemerides and Orbital Elementsに掲載されたものです。
星図は StellaNavigator Ver.2.0 for Windows (アストロアーツ 編著 / アスキー出版局刊) で作成したものです。
光度グラフはComet for Windowsで作成したものです。

---------------------------------------------------------------------

Copyright(C) 1995-2008 Seiichi Yoshida (comet@aerith.net). All rights reserved.